Regional Weather Roundup
Issued by NWS

Home | Current Version | Previous Version | Text Only | Print | Product List | Glossary On
Versions: 1 2 3 4 5 6 7 8 9 10 11 12 13 14 15 16 17 18 19 20 21 22 23 24 25 26 27 28 29 30 31 32 33 34 35 36 37 38 39 40 41 42 43 44 45 46 47 48 49 50
000
ASUS43 KMPX 010201
RWRMN
WEATHER ROUNDUP FOR MINNESOTA
NATIONAL WEATHER SERVICE TWIN CITIES/CHANHASSEN MN
900 PM CDT FRI OCT 31 2014


NOTE: "FAIR" INDICATES FEW OR NO CLOUDS BELOW 12,000 FEET WITH NO
SIGNIFICANT WEATHER AND/OR OBSTRUCTIONS TO VISIBILITY. N/A MEANS
CURRENT SKY AND/OR WEATHER CONDITIONS ARE NOT AVAILABLE.

MNZ060>063-068>070-010300-
   Twin Cities Metro

CITY           SKY/WX    TMP DP  RH WIND       PRES   REMARKS
TWIN CITIES    CLEAR     33  17  51 E3        30.48F
ST PAUL        CLEAR     31  19  61 CALM      30.50F
CRYSTAL        CLEAR     29  15  56 CALM      30.47F
BLAINE         CLEAR     27  18  69 CALM      30.48F
LAKEVILLE      CLEAR     25  18  74 CALM      30.48F
EDEN PRAIRIE   CLEAR     30  18  60 NE3       30.47F
SOUTH ST PAUL  CLEAR     30  19  62 CALM      30.49F
LAKE ELMO      FAIR      25  19  80 CALM      30.49F
$$
MNZ001>005-007-008-013>017-022>024-027-028-010300-
   Northwest Minnesota

CITY           SKY/WX    TMP DP  RH WIND       PRES   REMARKS
BEMIDJI        CLEAR     26  17  67 SE8       30.41F WCI  18
HALLOCK        CLOUDY    32  19  59 SE12      30.34F WCI  23
ROSEAU         CLEAR     28  19  69 SE9       30.38F WCI  20
WARROAD        CLEAR     28  21  74 SE7       30.39F WCI  21
THIEF RVR FALL PTCLDY    28  19  69 SE7       30.38F WCI  21
CROOKSTON      PTCLDY    30  19  64 S9        30.39S WCI  22
FOSSTON        CLEAR     27  19  74 SE7       30.40F WCI  19
DETROIT LAKES  CLEAR     30  23  74 SE8       30.41F WCI  23
MOORHEAD       CLEAR     32  21  64 S13       30.40F WCI  22
PARK RAPIDS    CLEAR     27  14  58 SE7       30.42S WCI  19
MAHNOMEN       FAIR      28  19  68 SE8       30.40F WCI  20
$$
MNZ006-009>011-018-025>026-010300-
   North Central Minnesota

CITY           SKY/WX    TMP DP  RH WIND       PRES   REMARKS
BAUDETTE       CLEAR     27  18  69 S5        30.40F WCI  22
FLAG ISLAND    CLEAR     37  25  60 S20G25    30.37F
INTL FALLS     CLEAR     23  16  74 SE3       30.42F
WASKISH        CLEAR     25  19  80 CALM      30.42S
BIG FORK       CLEAR     23  18  80 CALM      30.44F
LONGVILLE      CLEAR     21  19  93 CALM      30.44F
GRAND RAPIDS   CLEAR     23  16  74 S5        30.43F WCI  17
CRANE LAKE     CLEAR     19  19 100 CALM      30.46F
ORR            CLEAR     25  16  68 CALM      30.41F
COOK           CLEAR     21  19  93 CALM      30.44F
WALKER         FAIR      30  17  56 S5        30.43S WCI  26
$$
MNZ012-019>021-037-010300-
   Northeast Minnesota

CITY           SKY/WX    TMP DP  RH WIND       PRES   REMARKS
DULUTH         CLEAR     28  15  58 CALM      30.44F
ELY            CLEAR     21  18  86 CALM      30.44F
HIBBING        CLEAR     22  15  75 CALM      30.44F
EVELETH        CLEAR     23  19  86 CALM      30.46S
DULUTH HARBOR  CLEAR     36  19  51 CALM      30.49F
TWO HARBORS    CLEAR     27  21  80 CALM      30.45F
SILVER BAY     CLEAR     25  19  80 CALM      30.45F
GRAND MARAIS     N/A     26  21  81 NW3       30.48F
G MARAIS ARPRT CLEAR     21  16  79 SE1       30.42F
$$
MNZ029>031-032-039>041-046>048-054>057-064-010300-
   West Central Minnesota

CITY           SKY/WX    TMP DP  RH WIND       PRES   REMARKS
FERGUS FALLS   CLEAR     25  18  74 S6        30.44F WCI  18
WHEATON        CLEAR     21  18  86 SE9       30.44F WCI  11
MORRIS         CLEAR     25  19  80 SE7       30.43F WCI  17
ALEXANDRIA     CLEAR     27  17  66 SE7       30.44F WCI  19
ELBOW LAKE     FAIR      28  20  72 SE7       30.42F WCI  21
WADENA         CLEAR     25  16  68 SE5       30.43S WCI  19
GLENWOOD       CLEAR     27  18  69 SE3       30.45R
APPLETON       CLEAR     30  19  64 SE5       30.44F WCI  25
BENSON         CLEAR     28  19  69 S6        30.45S WCI  22
ORTONVILLE     CLEAR     27  19  74 SE8       30.42F WCI  18
MADISON        CLEAR     30  23  74 SE8       30.44F WCI  23
WILLMAR        FAIR      28  18  64 SE5       30.47F WCI  23
$$
MNZ033>034-036-042>043-049>051-058-059-010300-
   Central Minnesota

CITY           SKY/WX    TMP DP  RH WIND       PRES   REMARKS
ST CLOUD       CLEAR     27  15  61 CALM      30.47F
SAUK CENTRE    FAIR      26  17  67 E6        30.45F WCI  20
PAYNESVILLE    CLEAR     23  17  80 CALM      30.47S
AITKIN         CLEAR     25  19  80 CALM      30.44F
PINE RIVER     CLEAR     23  18  80 CALM      30.46F
BRAINERD       CLEAR     25  17  72 CALM      30.46F
STAPLES        CLEAR     25  16  68 CALM      30.44S
LONG PRAIRIE   FAIR      27  19  74 E5        30.45F WCI  21
LITTLE FALLS   CLEAR     27  18  69 CALM      30.47S
LITCHFIELD     CLEAR     27  19  74 CALM      30.48S
BUFFALO        CLEAR     26  15  64 CALM      30.49S
MAPLE LAKE     CLEAR     26  22  85 CALM      30.48F
$$
MNZ037-044-045-052-053-010300-
   East Central Minnesota

CITY           SKY/WX    TMP DP  RH WIND       PRES   REMARKS
PRINCETON      CLEAR     23  16  74 CALM      30.48R
MORA           CLEAR     25  19  80 CALM      30.49S
CAMBRIDGE      CLEAR     27  16  63 CALM      30.46S
RUSH CITY      CLEAR     24  17  74 CALM      30.47F
MOOSE LAKE     CLEAR     25  18  74 CALM      30.45S
HINCKLEY       FAIR      25  18  74 CALM      30.48S
CLOQUET        CLEAR     27  16  63 CALM      30.46R
MCGREGOR       CLEAR     27  19  74 CALM      30.46F
$$
MNZ071>073-080-081-089-090-097-098-010300-
   Southwest Minnesota

CITY           SKY/WX    TMP DP  RH WIND       PRES   REMARKS
MONTEVIDEO     CLEAR     28  19  69 S6        30.46S WCI  22
GRANITE FALLS  CLEAR     26  16  66 SE5       30.47S WCI  20
CANBY          PTCLDY    27  19  73 S5        30.44F WCI  21
MARSHALL       FAIR      28  12  50 S6        30.43F WCI  22
REDWOOD FALLS  PTCLDY    30  15  53 SE5       30.46F WCI  25
OLIVIA         PTCLDY    30  18  59 SE3       30.46S
PIPESTONE      PTCLDY    28  16  59 SE6       30.41F WCI  22
WINDOM         FAIR      25  16  68 CALM      30.45F
WORTHINGTON    PTCLDY    27  16  63 E6        30.44F WCI  20
JACKSON        PTCLDY    27  14  59 CALM      30.45F
TRACY          CLEAR     29  17  61 S3        30.44F
SLAYTON        PTCLDY    28  16  61 CALM      30.44F
$$
MNZ065>067-074>077-082>085-091>093-010300-
   South Central Minnesota

CITY           SKY/WX    TMP DP  RH WIND       PRES   REMARKS
MANKATO        CLEAR     30  19  64 NE3       30.47F
NEW ULM        PTCLDY    30  16  55 CALM      30.47F
ST JAMES       PTCLDY    27  16  63 CALM      30.48S
FAIRMONT       PTCLDY    25  10  54 CALM      30.46S
GLENCOE        CLEAR     28  19  67 CALM      30.47F
FARIBAULT      CLEAR     21  18  86 CALM      30.48S
OWATONNA       CLEAR     19  16  86 CALM      30.47S
WASECA         CLEAR     25  14  63 NE3       30.49S
ALBERT LEA     CLEAR     27  18  69 CALM      30.46S
$$
MNZ078>079-086>088-094>096-010300-
   Southeast Minnesota

CITY           SKY/WX    TMP DP  RH WIND       PRES   REMARKS
ROCHESTER      CLEAR     28  17  63 N7        30.46F WCI  21
RED WING       CLEAR     28  18  64 NE5       30.48S WCI  23
STANTON        CLEAR     26  18  72 CALM      30.47S
DODGE CENTER   PTCLDY    28  19  69 N3        30.46S
WINONA         CLEAR     34  27  75 CALM      30.50R
AUSTIN         CLEAR     27  18  69 NE3       30.46R
PRESTON        CLEAR     28  19  68 N5        30.46S WCI  22
$$
ABBREVIATIONS USED IN REMARKS
   TC - TEMPERATURES IN CELSIUS
  WCI - WIND CHILL INDEX
   HX - HEAT INDEX
  VSB - VISIBILITY
$$



USA.gov is the U.S. government's official web portal to all federal, state and local government web resources and services.